Stations météo

réclame
Mon MeteoGroup
Umeå Flygplats, Suède (2286): Température de l'air & dewpoint: 11.12.2018 02:00:00 - 17.12.2018 02:00:00 (CET)Umeå Flygplats, Suède (2286): Vitesse du vent: 11.12.2018 02:00:00 - 17.12.2018 02:00:00 (CET)Umeå Flygplats, Suède (2286): Direction du vent: 11.12.2018 02:00:00 - 17.12.2018 02:00:00 (CET)Umeå Flygplats, Suède (2286): reduced air pressure: 11.12.2018 02:00:00 - 17.12.2018 02:00:00 (CET)Umeå Flygplats, Suède (2286): visibility: 11.12.2018 02:00:00 - 17.12.2018 02:00:00 (CET)
Date & Time tt [°C] td [°C] ff [km/h] ff [knt] dd ppp [hPa] vv [km]
17.12.2018 02:00:00 -4,0 -5,0 5 3 ENE - 10
17.12.2018 01:00:00 -3,7 -5,2 13 7 E 1026,3 10
17.12.2018 00:00:00 -3,4 -5,3 15 8 ESE 1026,9 10
16.12.2018 23:00:00 -2,6 -4,6 11 6 SE 1027,2 10
16.12.2018 22:00:00 -1,8 -3,7 18 10 SSE 1027,6 10
16.12.2018 21:00:00 -0,9 -2,9 18 10 S 1027,4 10
16.12.2018 20:00:00 -0,4 -2,3 22 12 S 1027,5 10
16.12.2018 19:00:00 0,0 -1,4 18 10 S 1027,5 10
16.12.2018 18:00:00 -0,8 -0,9 16 9 SE 1027,7 2,4
16.12.2018 17:00:00 -1,4 -1,5 4 2 - 1028,1 6
16.12.2018 16:00:00 -4,8 -5,3 5 3 NNW 1028,5 6
16.12.2018 15:00:00 -6,6 -7,3 0 0 N 1029,2 10
16.12.2018 14:00:00 -7,0 -7,7 4 2 NW 1029,6 10
16.12.2018 13:00:00 -7,3 -8,0 4 2 NNE 1030,0 10
16.12.2018 12:00:00 -6,5 -7,3 4 2 - 1030,4 10
16.12.2018 11:00:00 -3,0 -3,7 4 2 - 1030,7 10
16.12.2018 10:00:00 -1,6 -2,7 21 11 SSE 1030,8 10
16.12.2018 09:00:00 -1,1 -2,4 11 6 S 1030,9 10
16.12.2018 08:00:00 -1,1 -1,6 26 14 SSE 1031,0 5
16.12.2018 07:00:00 -5,8 -6,5 4 2 NW 1031,1 2,0
16.12.2018 06:00:00 -6,6 -7,5 5 3 NW 1031,2 10
16.12.2018 05:00:00 -6,9 -7,7 5 3 NW 1031,6 0,6
16.12.2018 04:00:00 -7,0 -7,8 5 3 - 1032,1 10
16.12.2018 03:00:00 -7,7 -8,6 4 2 - 1032,7 10
16.12.2018 02:00:00 -7,9 -8,7 4 2 NW 1032,8 10
16.12.2018 01:00:00 -9,3 -10,2 0 0 N 1033,5 10
16.12.2018 00:00:00 -10,6 -11,6 4 2 NW 1033,7 10
15.12.2018 23:00:00 -9,8 -10,9 0 0 N 1033,9 10
15.12.2018 22:00:00 -9,9 -10,7 4 2 NNW 1034,2 10
15.12.2018 21:00:00 -10,1 -11,0 0 0 N 1034,4 10
15.12.2018 20:00:00 -11,6 -12,8 4 2 NW 1034,7 10
15.12.2018 19:00:00 -12,8 -14,1 5 3 WNW 1034,9 10
15.12.2018 18:00:00 -12,3 -13,6 5 3 WNW 1034,9 10
15.12.2018 17:00:00 -10,4 -11,3 4 2 - 1034,7 10
15.12.2018 16:00:00 -8,5 -9,3 8 4 SW 1034,6 10
15.12.2018 15:00:00 -6,9 -7,8 11 6 SW 1034,5 10
15.12.2018 14:00:00 -5,7 -6,2 0 0 N 1034,6 10
15.12.2018 13:00:00 -6,9 -7,6 5 3 N 1034,6 10
15.12.2018 12:00:00 -6,6 -7,3 8 4 NNW 1034,6 10
15.12.2018 11:00:00 -5,3 -5,8 8 4 W 1034,7 10
15.12.2018 10:00:00 -5,6 -6,1 5 3 WSW 1034,6 10
15.12.2018 09:00:00 -5,9 -6,4 9 5 WSW 1034,3 10
15.12.2018 08:00:00 -5,8 -6,3 11 6 WSW 1034,4 10
15.12.2018 07:00:00 -6,1 -6,6 9 5 SW 1034,3 10
15.12.2018 06:00:00 -5,9 -6,6 9 5 WSW 1034,2 10
15.12.2018 05:00:00 -5,2 -5,9 9 5 SW 1034,0 10
15.12.2018 04:00:00 -5,7 -6,5 8 4 WSW 1033,8 10
15.12.2018 03:00:00 -6,3 -7,0 8 4 SW 1033,7 10
15.12.2018 02:00:00 -6,4 -7,1 8 4 WSW 1034,0 10
15.12.2018 01:00:00 -6,8 -7,5 5 3 - 1034,0 10
15.12.2018 00:00:00 -8,4 -9,3 2 1 - 1034,0 10
14.12.2018 23:00:00 -9,4 -10,3 4 2 - 1034,1 10
14.12.2018 22:00:00 -10,2 -11,3 8 4 NNW 1034,1 0,8
14.12.2018 21:00:00 -11,3 -12,3 5 3 N 1033,9 10
14.12.2018 20:00:00 -11,4 -12,4 4 2 - 1033,9 10
14.12.2018 19:00:00 -12,5 -14,2 8 4 NW 1034,0 10
14.12.2018 18:00:00 -12,8 -14,8 8 4 NW 1034,2 10
14.12.2018 17:00:00 -11,6 -12,7 8 4 NW 1034,0 10
14.12.2018 16:00:00 -12,3 -14,3 5 3 NW 1033,9 10
14.12.2018 15:00:00 -12,5 -14,6 5 3 NW 1033,8 10
14.12.2018 14:00:00 -12,2 -14,3 5 3 NW 1033,7 10
14.12.2018 13:00:00 -11,8 -13,7 5 3 NNW 1033,7 10
14.12.2018 12:00:00 -12,1 -13,8 8 4 WNW 1033,6 10
14.12.2018 11:00:00 -10,6 -12,1 8 4 NW 1033,6 10
14.12.2018 10:00:00 -10,5 -11,7 8 4 NW 1033,7 10
14.12.2018 09:00:00 -6,0 -6,5 9 5 SW 1033,0 9
14.12.2018 08:00:00 -5,7 -6,1 11 6 W 1032,8 10
14.12.2018 07:00:00 -5,1 -5,6 13 7 W 1032,8 10
14.12.2018 06:00:00 -4,4 -5,2 13 7 SW 1032,6 10
14.12.2018 05:00:00 -4,3 -5,4 13 7 SSW 1032,5 10
14.12.2018 04:00:00 -3,7 -5,0 16 9 SW 1032,8 10
14.12.2018 03:00:00 -6,8 -7,7 4 2 - 1033,3 10
14.12.2018 02:00:00 -9,1 -10,4 5 3 NW 1033,4 10
14.12.2018 01:00:00 -9,9 -11,2 8 4 NW 1033,6 10
14.12.2018 00:00:00 -11,3 -12,7 4 2 NW 1033,5 10
13.12.2018 23:00:00 -13,6 -15,0 4 2 NW 1033,7 10
13.12.2018 22:00:00 -14,3 -15,8 2 1 - 1033,6 10
13.12.2018 21:00:00 -14,4 -16,1 0 0 N 1033,8 10
13.12.2018 20:00:00 -14,2 -15,7 0 0 N 1033,9 10
13.12.2018 19:00:00 -13,2 -14,5 0 0 N 1034,0 10
13.12.2018 18:00:00 -14,0 -15,6 2 1 NW 1034,2 10
13.12.2018 17:00:00 -14,1 -15,7 4 2 W 1034,2 10
13.12.2018 16:00:00 -13,6 -15,0 2 1 WNW 1034,3 10
13.12.2018 15:00:00 -12,8 -14,2 4 2 NW 1034,0 10
13.12.2018 14:00:00 -12,3 -13,7 0 0 N 1034,2 10
13.12.2018 13:00:00 -11,1 -12,4 0 0 N 1034,4 10
13.12.2018 12:00:00 -11,0 -12,5 0 0 N 1034,5 10
13.12.2018 11:00:00 -12,0 -13,6 0 0 N 1034,9 10
13.12.2018 10:00:00 -13,0 -14,4 2 1 WNW 1035,0 10
13.12.2018 09:00:00 -14,0 -15,6 0 0 N 1034,8 10
13.12.2018 08:00:00 -14,0 -15,4 2 1 WNW 1034,4 10
13.12.2018 07:00:00 -13,6 -15,2 0 0 N 1034,3 10
13.12.2018 06:00:00 -12,3 -13,6 4 2 N 1034,4 10
13.12.2018 05:00:00 -12,4 -13,7 5 3 NW 1034,6 10
13.12.2018 04:00:00 -13,1 -14,3 4 2 WNW 1034,8 10
13.12.2018 03:00:00 -12,2 -13,4 5 3 NW 1035,0 10
13.12.2018 02:00:00 -12,8 -13,8 4 2 W 1034,8 10
13.12.2018 01:00:00 -12,5 -13,8 2 1 WNW 1034,9 10
13.12.2018 00:00:00 -12,0 -13,2 4 2 NW 1034,8 10
12.12.2018 23:00:00 -10,8 -11,8 4 2 NW 1034,9 10
12.12.2018 22:00:00 -11,0 -12,6 8 4 NW 1034,9 10
12.12.2018 21:00:00 -11,2 -12,5 5 3 - 1034,8 10
12.12.2018 20:00:00 -9,2 -10,8 9 5 NNW 1034,8 10
12.12.2018 19:00:00 -9,2 -10,5 8 4 NW 1034,5 10
12.12.2018 18:00:00 -8,6 -10,1 8 4 NNW 1034,2 10
12.12.2018 17:00:00 -8,3 -9,8 5 3 NW 1033,9 10
12.12.2018 16:00:00 -7,9 -9,5 9 5 NW 1033,8 10
12.12.2018 15:00:00 -7,8 -9,2 9 5 NW 1033,5 10
12.12.2018 14:00:00 -7,1 -8,7 8 4 NW 1033,5 10
12.12.2018 13:00:00 -6,9 -8,7 5 3 NW 1033,1 10
12.12.2018 12:00:00 -6,5 -8,5 9 5 NW 1032,8 10
12.12.2018 11:00:00 -7,3 -8,8 5 3 WNW 1032,3 10
12.12.2018 10:00:00 -6,9 -8,6 9 5 NW 1032,1 10
12.12.2018 09:00:00 -7,0 -8,6 8 4 NW 1031,8 10
12.12.2018 08:00:00 -7,3 -8,7 8 4 NW 1031,4 10
12.12.2018 07:00:00 -7,0 -8,6 8 4 NW 1030,8 10
12.12.2018 06:00:00 -7,0 -8,9 9 5 NW 1030,3 10
12.12.2018 05:00:00 -5,5 -7,5 9 5 NW 1030,0 10
12.12.2018 04:00:00 -6,2 -7,6 8 4 NW 1029,5 10
12.12.2018 03:00:00 -6,1 -7,5 9 5 NW 1029,2 10
12.12.2018 02:00:00 -4,9 -6,7 5 3 NNW 1029,0 10
12.12.2018 01:00:00 -5,0 -6,5 8 4 NW 1028,6 10
12.12.2018 00:00:00 -4,8 -6,3 11 6 NNW 1027,9 10
11.12.2018 23:00:00 -4,4 -5,8 9 5 NNW 1027,4 10
11.12.2018 22:00:00 -3,9 -5,2 11 6 NNW 1026,8 10
11.12.2018 21:00:00 -2,7 -4,6 9 5 NNW 1026,4 10
11.12.2018 20:00:00 -1,9 -3,9 13 7 NNW 1026,1 10
11.12.2018 19:00:00 -0,9 -2,6 11 6 N 1025,5 10
11.12.2018 18:00:00 -0,9 -2,8 15 8 N 1024,6 8
11.12.2018 17:00:00 -0,6 -2,8 15 8 N 1024,3 10
11.12.2018 16:00:00 -0,4 -2,0 15 8 NNW 1023,9 10
11.12.2018 15:00:00 -0,1 -2,2 11 6 NNW 1023,1 10
11.12.2018 14:00:00 -0,2 -1,9 15 8 NNW 1022,6 10
11.12.2018 13:00:00 0,0 -1,9 16 9 NNW 1021,9 10
11.12.2018 12:00:00 0,0 -1,7 15 8 NNW 1021,3 10
11.12.2018 11:00:00 -0,3 -1,9 13 7 NNW 1020,6 10
11.12.2018 10:00:00 -0,3 -2,0 11 6 NNW 1020,0 10
11.12.2018 09:00:00 -0,4 -1,8 11 6 NNW 1019,3 10
11.12.2018 08:00:00 -0,1 -1,8 16 9 N 1018,5 10
11.12.2018 07:00:00 -0,1 -1,5 15 8 NNW 1017,9 10
11.12.2018 06:00:00 0,0 -1,1 16 9 N 1017,1 10
11.12.2018 05:00:00 0,2 -0,9 15 8 NNW 1016,3 10
11.12.2018 04:00:00 0,3 -0,6 16 9 N 1015,3 10
11.12.2018 03:00:00 0,5 -0,4 13 7 N 1014,3 10
11.12.2018 02:00:00 0,6 -0,3 16 9 N 1013,3 10

tt = Température de l'air
td = dewpoint
ff = Vitesse du vent
dd = Direction du vent
ppp = reduced air pressure
vv = visibility

stations d'obs. à proximité